Time,TemperatureF,DewpointF,PressureIn,WindDirection,WindDirectionDegrees,WindSpeedMPH,WindSpeedGustMPH,Humidity,HourlyPrecipIn,Conditions,Clouds,dailyrainin,SoftwareType,DateUTC
2013-12-05 00:01:00,49.8,36.9,30.22,South,180,0.0,3.0,61,0.00,,,0.00,meteohub,2013-12-05 05:01:00,
2013-12-05 00:02:00,49.8,36.9,30.22,SSW,202,0.0,3.0,61,0.00,,,0.00,meteohub,2013-12-05 05:02:00,
2013-12-05 00:03:00,49.8,36.9,30.22,SW,225,0.0,3.0,61,0.00,,,0.00,meteohub,2013-12-05 05:03:00,
2013-12-05 00:09:00,50.0,37.0,30.22,West,270,0.0,3.0,61,0.00,,,0.00,meteohub,2013-12-05 05:09:00,
2013-12-05 00:10:00,50.0,37.0,30.22,West,270,0.0,3.0,61,0.00,,,0.00,meteohub,2013-12-05 05:10:00,
2013-12-05 00:14:00,50.0,37.0,30.22,SW,225,0.0,3.0,61,0.00,,,0.00,meteohub,2013-12-05 05:14:00,
2013-12-05 00:19:00,50.0,37.6,30.22,SSW,202,0.0,0.0,62,0.00,,,0.00,meteohub,2013-12-05 05:19:00,
2013-12-05 00:24:00,50.2,37.8,30.22,South,180,0.0,3.0,62,0.00,,,0.00,meteohub,2013-12-05 05:24:00,
2013-12-05 00:29:00,50.2,37.8,30.22,North,0,0.0,3.0,62,0.00,,,0.00,meteohub,2013-12-05 05:29:00,
2013-12-05 00:34:00,50.2,37.8,30.22,South,180,0.0,4.0,62,0.00,,,0.00,meteohub,2013-12-05 05:34:00,
2013-12-05 00:39:00,50.2,37.8,30.19,West,270,0.0,4.0,62,0.00,,,0.00,meteohub,2013-12-05 05:39:00,
2013-12-05 00:44:00,50.2,38.1,30.19,South,180,2.0,4.0,63,0.00,,,0.00,meteohub,2013-12-05 05:44:00,
2013-12-05 00:49:00,50.2,38.1,30.19,South,180,0.0,4.0,63,0.00,,,0.00,meteohub,2013-12-05 05:49:00,
2013-12-05 00:54:00,50.2,38.1,30.19,South,180,3.0,4.0,63,0.00,,,0.00,meteohub,2013-12-05 05:54:00,
2013-12-05 01:00:00,50.2,38.5,30.19,South,180,3.0,4.0,64,0.00,,,0.00,meteohub,2013-12-05 06:00:00,
2013-12-05 01:05:00,50.4,39.0,30.19,SE,135,0.0,4.0,65,0.00,,,0.00,meteohub,2013-12-05 06:05:00,
2013-12-05 01:10:00,50.4,39.0,30.19,SW,225,3.0,4.0,65,0.00,,,0.00,meteohub,2013-12-05 06:10:00,
2013-12-05 01:15:00,50.4,39.4,30.19,SSW,202,4.0,5.0,66,0.00,,,0.00,meteohub,2013-12-05 06:15:00,
2013-12-05 01:20:00,50.4,39.4,30.19,South,180,4.0,5.0,66,0.00,,,0.00,meteohub,2013-12-05 06:20:00,
2013-12-05 01:25:00,50.4,39.4,30.19,SW,225,0.0,5.0,66,0.00,,,0.00,meteohub,2013-12-05 06:25:00,
2013-12-05 01:30:00,50.4,39.4,30.19,South,180,0.0,4.0,66,0.00,,,0.00,meteohub,2013-12-05 06:30:00,
2013-12-05 01:35:00,50.4,39.4,30.19,SE,135,0.0,4.0,66,0.00,,,0.00,meteohub,2013-12-05 06:35:00,
2013-12-05 01:40:00,50.4,39.4,30.19,South,180,0.0,4.0,66,0.00,,,0.00,meteohub,2013-12-05 06:40:00,
2013-12-05 01:45:00,50.4,39.4,30.19,South,180,0.0,3.0,66,0.00,,,0.00,meteohub,2013-12-05 06:45:00,
2013-12-05 01:50:00,50.4,39.4,30.19,East,90,4.0,4.0,66,0.00,,,0.00,meteohub,2013-12-05 06:50:00,
2013-12-05 01:56:00,50.4,39.4,30.19,SSW,202,0.0,4.0,66,0.00,,,0.00,meteohub,2013-12-05 06:56:00,
2013-12-05 02:01:00,50.4,39.4,30.19,South,180,0.0,4.0,66,0.00,,,0.00,meteohub,2013-12-05 07:01:00,
2013-12-05 02:06:00,50.4,39.4,30.19,South,180,0.0,4.0,66,0.00,,,0.00,meteohub,2013-12-05 07:06:00,
2013-12-05 02:11:00,50.4,39.4,30.19,South,180,0.0,0.0,66,0.00,,,0.00,meteohub,2013-12-05 07:11:00,
2013-12-05 02:16:00,50.4,39.4,30.19,South,180,0.0,0.0,66,0.00,,,0.00,meteohub,2013-12-05 07:16:00,
2013-12-05 02:21:00,50.4,39.4,30.19,South,180,0.0,0.0,66,0.00,,,0.00,meteohub,2013-12-05 07:21:00,
2013-12-05 02:26:00,50.4,39.4,30.19,South,180,0.0,0.0,66,0.00,,,0.00,meteohub,2013-12-05 07:26:00,
2013-12-05 02:31:00,50.4,39.4,30.19,South,180,0.0,0.0,66,0.00,,,0.00,meteohub,2013-12-05 07:31:00,
2013-12-05 02:36:00,50.4,39.4,30.19,South,180,0.0,0.0,66,0.00,,,0.00,meteohub,2013-12-05 07:36:00,
2013-12-05 02:42:00,50.4,39.9,30.19,West,270,0.0,0.0,67,0.00,,,0.00,meteohub,2013-12-05 07:42:00,
2013-12-05 02:47:00,50.4,39.9,30.19,West,270,0.0,0.0,67,0.00,,,0.00,meteohub,2013-12-05 07:47:00,
2013-12-05 02:52:00,50.4,39.9,30.19,West,270,0.0,0.0,67,0.00,,,0.00,meteohub,2013-12-05 07:52:00,
2013-12-05 02:57:00,50.4,40.3,30.19,West,270,0.0,0.0,68,0.00,,,0.00,meteohub,2013-12-05 07:57:00,
2013-12-05 03:02:00,50.5,40.5,30.19,West,270,0.0,0.0,68,0.00,,,0.00,meteohub,2013-12-05 08:02:00,
2013-12-05 03:07:00,50.5,40.5,30.19,West,270,0.0,0.0,68,0.00,,,0.00,meteohub,2013-12-05 08:07:00,
2013-12-05 03:12:00,50.5,40.5,30.19,West,270,0.0,0.0,68,0.00,,,0.00,meteohub,2013-12-05 08:12:00,
2013-12-05 03:17:00,50.5,40.5,30.19,West,270,0.0,0.0,68,0.00,,,0.00,meteohub,2013-12-05 08:17:00,
2013-12-05 03:22:00,50.4,40.6,30.19,West,270,0.0,0.0,69,0.00,,,0.00,meteohub,2013-12-05 08:22:00,
2013-12-05 03:27:00,50.4,40.6,30.19,West,270,0.0,0.0,69,0.00,,,0.00,meteohub,2013-12-05 08:27:00,
2013-12-05 03:32:00,50.4,40.6,30.19,West,270,0.0,0.0,69,0.00,,,0.00,meteohub,2013-12-05 08:32:00,
2013-12-05 03:38:00,50.4,41.0,30.19,South,180,0.0,0.0,70,0.00,,,0.00,meteohub,2013-12-05 08:38:00,
2013-12-05 03:43:00,50.4,41.0,30.19,SW,225,0.0,0.0,70,0.00,,,0.00,meteohub,2013-12-05 08:43:00,
2013-12-05 03:48:00,50.4,41.0,30.19,SW,225,0.0,0.0,70,0.00,,,0.00,meteohub,2013-12-05 08:48:00,
2013-12-05 03:53:00,50.4,41.0,30.19,SW,225,0.0,0.0,70,0.00,,,0.00,meteohub,2013-12-05 08:53:00,
2013-12-05 03:58:00,50.4,41.0,30.19,South,180,0.0,0.0,70,0.00,,,0.00,meteohub,2013-12-05 08:58:00,
2013-12-05 04:03:00,50.5,41.5,30.19,South,180,0.0,0.0,71,0.00,,,0.00,meteohub,2013-12-05 09:03:00,
2013-12-05 04:08:00,50.5,41.5,30.19,South,180,0.0,0.0,71,0.00,,,0.00,meteohub,2013-12-05 09:08:00,
2013-12-05 04:13:00,50.5,41.5,30.19,South,180,0.0,0.0,71,0.00,,,0.00,meteohub,2013-12-05 09:13:00,
2013-12-05 04:18:00,50.7,41.7,30.19,South,180,0.0,0.0,71,0.00,,,0.00,meteohub,2013-12-05 09:18:00,
2013-12-05 04:23:00,50.5,41.9,30.17,SSE,158,0.0,0.0,72,0.00,,,0.00,meteohub,2013-12-05 09:23:00,
2013-12-05 04:29:00,50.5,41.9,30.17,SSE,158,0.0,0.0,72,0.00,,,0.00,meteohub,2013-12-05 09:29:00,
2013-12-05 04:34:00,50.5,41.9,30.17,South,180,0.0,0.0,72,0.00,,,0.00,meteohub,2013-12-05 09:34:00,
2013-12-05 04:39:00,50.5,41.9,30.17,South,180,0.0,0.0,72,0.00,,,0.00,meteohub,2013-12-05 09:39:00,
2013-12-05 04:44:00,50.5,41.9,30.17,SSW,202,0.0,0.0,72,0.00,,,0.00,meteohub,2013-12-05 09:44:00,
2013-12-05 04:49:00,50.5,41.9,30.17,NW,315,0.0,2.0,72,0.00,,,0.00,meteohub,2013-12-05 09:49:00,
2013-12-05 04:54:00,50.5,41.9,30.17,NW,315,0.0,3.0,72,0.00,,,0.00,meteohub,2013-12-05 09:54:00,
2013-12-05 04:59:00,50.5,41.9,30.17,NW,315,0.0,3.0,72,0.00,,,0.00,meteohub,2013-12-05 09:59:00,
2013-12-05 05:04:00,50.5,41.9,30.17,South,180,0.0,0.0,72,0.00,,,0.00,meteohub,2013-12-05 10:04:00,
2013-12-05 05:09:00,50.5,42.3,30.17,South,180,0.0,0.0,73,0.00,,,0.00,meteohub,2013-12-05 10:09:00,
2013-12-05 05:14:00,50.5,42.3,30.17,South,180,0.0,0.0,73,0.00,,,0.00,meteohub,2013-12-05 10:14:00,
2013-12-05 05:20:00,50.5,42.3,30.17,SW,225,0.0,0.0,73,0.00,,,0.00,meteohub,2013-12-05 10:20:00,
2013-12-05 05:25:00,50.5,42.3,30.17,SW,225,0.0,0.0,73,0.00,,,0.00,meteohub,2013-12-05 10:25:00,
2013-12-05 05:30:00,50.5,42.3,30.17,SW,225,0.0,0.0,73,0.00,,,0.00,meteohub,2013-12-05 10:30:00,
2013-12-05 05:35:00,50.5,42.3,30.17,SW,225,0.0,0.0,73,0.00,,,0.00,meteohub,2013-12-05 10:35:00,
2013-12-05 05:40:00,50.5,42.3,30.17,SW,225,0.0,0.0,73,0.00,,,0.00,meteohub,2013-12-05 10:40:00,
2013-12-05 05:45:00,50.5,42.3,30.17,SW,225,0.0,0.0,73,0.00,,,0.00,meteohub,2013-12-05 10:45:00,
2013-12-05 05:51:00,50.4,42.1,30.17,SW,225,0.0,0.0,73,0.00,,,0.00,meteohub,2013-12-05 10:51:00,
2013-12-05 05:56:00,50.5,42.6,30.17,SW,225,0.0,0.0,74,0.00,,,0.00,meteohub,2013-12-05 10:56:00,
2013-12-05 06:01:00,50.5,42.6,30.17,SW,225,0.0,0.0,74,0.00,,,0.00,meteohub,2013-12-05 11:01:00,
2013-12-05 06:06:00,50.5,42.6,30.14,SSW,202,0.0,0.0,74,0.00,,,0.00,meteohub,2013-12-05 11:06:00,
2013-12-05 06:11:00,50.7,42.8,30.14,SSW,202,0.0,0.0,74,0.00,,,0.00,meteohub,2013-12-05 11:11:00,
2013-12-05 06:16:00,50.7,42.8,30.14,SSW,202,0.0,0.0,74,0.00,,,0.00,meteohub,2013-12-05 11:16:00,
2013-12-05 06:22:00,50.7,42.8,30.14,SSW,202,0.0,0.0,74,0.00,,,0.00,meteohub,2013-12-05 11:22:00,
2013-12-05 06:27:00,50.7,42.8,30.14,SSW,202,0.0,0.0,74,0.00,,,0.00,meteohub,2013-12-05 11:27:00,
2013-12-05 06:32:00,50.7,43.2,30.14,South,180,0.0,0.0,75,0.00,,,0.00,meteohub,2013-12-05 11:32:00,
2013-12-05 06:37:00,50.7,43.2,30.17,SW,225,0.0,0.0,75,0.00,,,0.00,meteohub,2013-12-05 11:37:00,
2013-12-05 06:42:00,50.9,43.3,30.17,SSW,202,0.0,0.0,75,0.00,,,0.00,meteohub,2013-12-05 11:42:00,
2013-12-05 06:47:00,50.9,43.3,30.17,WSW,248,0.0,0.0,75,0.00,,,0.00,meteohub,2013-12-05 11:47:00,
2013-12-05 06:52:00,50.9,43.3,30.17,SW,225,0.0,0.0,75,0.00,,,0.00,meteohub,2013-12-05 11:52:00,
2013-12-05 06:57:00,50.9,43.3,30.17,SW,225,0.0,0.0,75,0.00,,,0.00,meteohub,2013-12-05 11:57:00,
2013-12-05 07:03:00,50.5,43.0,30.17,SW,225,0.0,0.0,75,0.00,,,0.00,meteohub,2013-12-05 12:03:00,
2013-12-05 07:08:00,50.4,42.8,30.17,SW,225,0.0,0.0,75,0.00,,,0.00,meteohub,2013-12-05 12:08:00,
2013-12-05 07:13:00,50.2,42.6,30.17,SW,225,0.0,0.0,75,0.00,,,0.00,meteohub,2013-12-05 12:13:00,
2013-12-05 07:18:00,50.2,42.3,30.17,SW,225,0.0,0.0,74,0.00,,,0.00,meteohub,2013-12-05 12:18:00,
2013-12-05 07:23:00,50.2,42.3,30.19,SW,225,0.0,0.0,74,0.00,,,0.00,meteohub,2013-12-05 12:23:00,
2013-12-05 07:28:00,50.2,42.3,30.19,SW,225,0.0,0.0,74,0.00,,,0.00,meteohub,2013-12-05 12:28:00,
2013-12-05 07:33:00,50.2,42.3,30.19,SW,225,0.0,0.0,74,0.00,,,0.00,meteohub,2013-12-05 12:33:00,
2013-12-05 07:38:00,50.2,42.3,30.19,SW,225,0.0,0.0,74,0.00,,,0.00,meteohub,2013-12-05 12:38:00,
2013-12-05 07:43:00,50.0,42.1,30.19,SW,225,0.0,0.0,74,0.00,,,0.00,meteohub,2013-12-05 12:43:00,
2013-12-05 07:49:00,50.2,42.3,30.19,SW,225,0.0,0.0,74,0.00,,,0.00,meteohub,2013-12-05 12:49:00,
2013-12-05 07:54:00,50.2,42.3,30.17,SW,225,0.0,0.0,74,0.00,,,0.00,meteohub,2013-12-05 12:54:00,
2013-12-05 07:59:00,50.4,42.4,30.17,SW,225,0.0,0.0,74,0.00,,,0.00,meteohub,2013-12-05 12:59:00,
2013-12-05 08:04:00,50.5,43.0,30.17,SW,225,0.0,0.0,75,0.00,,,0.00,meteohub,2013-12-05 13:04:00,
2013-12-05 08:09:00,50.5,43.0,30.17,SSW,202,0.0,0.0,75,0.00,,,0.00,meteohub,2013-12-05 13:09:00,
2013-12-05 08:14:00,51.1,43.5,30.17,SW,225,0.0,0.0,75,0.00,,,0.00,meteohub,2013-12-05 13:14:00,
2013-12-05 08:19:00,51.3,43.9,30.17,SSW,202,0.0,0.0,76,0.00,,,0.00,meteohub,2013-12-05 13:19:00,
2013-12-05 08:24:00,51.6,44.2,30.17,South,180,0.0,0.0,76,0.00,,,0.00,meteohub,2013-12-05 13:24:00,
2013-12-05 08:29:00,51.6,44.6,30.17,South,180,0.0,0.0,77,0.00,,,0.00,meteohub,2013-12-05 13:29:00,
2013-12-05 08:34:00,51.6,45.0,30.17,South,180,0.0,0.0,78,0.00,,,0.00,meteohub,2013-12-05 13:34:00,
2013-12-05 08:40:00,51.8,45.1,30.17,South,180,0.0,0.0,78,0.00,,,0.00,meteohub,2013-12-05 13:40:00,
2013-12-05 08:45:00,52.0,45.3,30.17,SW,225,0.0,0.0,78,0.00,,,0.00,meteohub,2013-12-05 13:45:00,
2013-12-05 08:50:00,52.0,45.7,30.17,WSW,248,0.0,0.0,79,0.00,,,0.00,meteohub,2013-12-05 13:50:00,
2013-12-05 08:55:00,52.2,46.2,30.17,West,270,0.0,3.0,80,0.00,,,0.00,meteohub,2013-12-05 13:55:00,
2013-12-05 09:00:00,52.2,46.2,30.17,SW,225,0.0,3.0,80,0.00,,,0.00,meteohub,2013-12-05 14:00:00,
2013-12-05 09:05:00,52.2,46.2,30.19,SE,135,0.0,3.0,80,0.00,,,0.00,meteohub,2013-12-05 14:05:00,
2013-12-05 09:10:00,52.2,46.6,30.19,SW,225,0.0,0.0,81,0.00,,,0.00,meteohub,2013-12-05 14:10:00,
2013-12-05 09:15:00,52.3,46.8,30.19,SW,225,0.0,0.0,81,0.00,,,0.00,meteohub,2013-12-05 14:15:00,
2013-12-05 09:20:00,52.3,46.8,30.17,SSE,158,0.0,2.0,81,0.00,,,0.00,meteohub,2013-12-05 14:20:00,
2013-12-05 09:25:00,52.3,46.8,30.17,SSE,158,0.0,3.0,81,0.00,,,0.00,meteohub,2013-12-05 14:25:00,
2013-12-05 09:31:00,52.3,46.8,30.17,NW,315,0.0,3.0,81,0.00,,,0.00,meteohub,2013-12-05 14:31:00,
2013-12-05 09:36:00,52.3,46.8,30.17,South,180,0.0,3.0,81,0.00,,,0.00,meteohub,2013-12-05 14:36:00,
2013-12-05 09:41:00,52.3,46.9,30.17,West,270,0.0,0.0,82,0.00,,,0.00,meteohub,2013-12-05 14:41:00,
2013-12-05 09:46:00,52.3,46.8,30.17,SE,135,0.0,0.0,81,0.00,,,0.00,meteohub,2013-12-05 14:46:00,
2013-12-05 09:51:00,52.5,46.9,30.17,East,90,0.0,0.0,81,0.00,,,0.00,meteohub,2013-12-05 14:51:00,
2013-12-05 09:56:00,52.3,46.8,30.17,SW,225,0.0,0.0,81,0.00,,,0.00,meteohub,2013-12-05 14:56:00,
2013-12-05 10:01:00,52.5,46.9,30.17,SW,225,0.0,0.0,81,0.00,,,0.00,meteohub,2013-12-05 15:01:00,
2013-12-05 10:07:00,52.5,46.6,30.17,SE,135,0.0,0.0,80,0.00,,,0.00,meteohub,2013-12-05 15:07:00,
2013-12-05 10:12:00,52.5,46.6,30.17,SE,135,0.0,0.0,80,0.00,,,0.00,meteohub,2013-12-05 15:12:00,
2013-12-05 10:17:00,52.5,46.6,30.17,SW,225,0.0,0.0,80,0.00,,,0.00,meteohub,2013-12-05 15:17:00,
2013-12-05 10:23:00,52.7,47.1,30.17,West,270,0.0,0.0,81,0.00,,,0.00,meteohub,2013-12-05 15:23:00,
2013-12-05 10:28:00,52.7,46.8,30.17,SW,225,0.0,0.0,80,0.00,,,0.00,meteohub,2013-12-05 15:28:00,
2013-12-05 10:33:00,52.7,46.8,30.17,WNW,292,0.0,0.0,80,0.00,,,0.00,meteohub,2013-12-05 15:33:00,
2013-12-05 10:38:00,52.9,47.3,30.17,SW,225,0.0,0.0,81,0.00,,,0.00,meteohub,2013-12-05 15:38:00,
2013-12-05 10:43:00,52.9,47.3,30.17,East,90,0.0,0.0,81,0.00,,,0.00,meteohub,2013-12-05 15:43:00,
2013-12-05 10:48:00,52.9,47.3,30.17,South,180,0.0,0.0,81,0.00,,,0.00,meteohub,2013-12-05 15:48:00,
2013-12-05 10:53:00,52.9,47.3,30.17,SE,135,0.0,0.0,81,0.00,,,0.00,meteohub,2013-12-05 15:53:00,
2013-12-05 10:58:00,53.1,47.1,30.17,SE,135,0.0,0.0,80,0.00,,,0.00,meteohub,2013-12-05 15:58:00,
2013-12-05 11:03:00,53.1,47.1,30.17,South,180,0.0,0.0,80,0.00,,,0.00,meteohub,2013-12-05 16:03:00,
2013-12-05 11:08:00,53.1,47.1,30.17,West,270,0.0,0.0,80,0.00,,,0.00,meteohub,2013-12-05 16:08:00,
2013-12-05 11:14:00,53.2,47.3,30.17,ESE,112,0.0,0.0,80,0.00,,,0.00,meteohub,2013-12-05 16:14:00,
2013-12-05 11:20:00,53.2,47.3,30.17,SW,225,0.0,0.0,80,0.00,,,0.00,meteohub,2013-12-05 16:20:00,
2013-12-05 11:25:00,53.4,47.5,30.17,South,180,0.0,0.0,80,0.00,,,0.00,meteohub,2013-12-05 16:25:00,
2013-12-05 11:30:00,53.6,47.3,30.17,WSW,248,0.0,0.0,79,0.00,,,0.00,meteohub,2013-12-05 16:30:00,
2013-12-05 11:35:00,53.6,47.3,30.17,WNW,292,0.0,0.0,79,0.00,,,0.00,meteohub,2013-12-05 16:35:00,
2013-12-05 11:40:00,53.6,47.3,30.17,WNW,292,0.0,0.0,79,0.00,,,0.00,meteohub,2013-12-05 16:40:00,
2013-12-05 11:46:00,53.8,47.5,30.17,SSE,158,0.0,0.0,79,0.00,,,0.00,meteohub,2013-12-05 16:46:00,
2013-12-05 11:51:00,53.8,47.5,30.14,South,180,0.0,0.0,79,0.00,,,0.00,meteohub,2013-12-05 16:51:00,
2013-12-05 11:56:00,53.1,46.8,30.14,South,180,0.0,0.0,79,0.00,,,0.00,meteohub,2013-12-05 16:56:00,
2013-12-05 12:01:00,53.2,46.6,30.14,WNW,292,0.0,0.0,78,0.00,,,0.00,meteohub,2013-12-05 17:01:00,
2013-12-05 12:06:00,53.4,46.8,30.14,WNW,292,0.0,0.0,78,0.00,,,0.00,meteohub,2013-12-05 17:06:00,
2013-12-05 12:11:00,53.6,46.9,30.14,NW,315,0.0,0.0,78,0.00,,,0.00,meteohub,2013-12-05 17:11:00,
2013-12-05 12:16:00,53.8,47.1,30.14,NW,315,0.0,0.0,78,0.00,,,0.00,meteohub,2013-12-05 17:16:00,
2013-12-05 12:21:00,54.1,47.5,30.14,South,180,0.0,0.0,78,0.00,,,0.00,meteohub,2013-12-05 17:21:00,
2013-12-05 12:26:00,54.5,48.2,30.14,SW,225,0.0,0.0,79,0.00,,,0.00,meteohub,2013-12-05 17:26:00,
2013-12-05 12:31:00,54.7,48.4,30.14,SW,225,0.0,4.0,79,0.00,,,0.00,meteohub,2013-12-05 17:31:00,
2013-12-05 12:37:00,54.9,48.6,30.14,SSW,202,0.0,4.0,79,0.00,,,0.00,meteohub,2013-12-05 17:37:00,
2013-12-05 12:42:00,54.9,48.6,30.14,South,180,0.0,0.0,79,0.00,,,0.00,meteohub,2013-12-05 17:42:00,
2013-12-05 12:47:00,55.2,49.1,30.14,SW,225,0.0,2.0,80,0.00,,,0.00,meteohub,2013-12-05 17:47:00,
2013-12-05 12:52:00,55.2,49.1,30.11,SW,225,0.0,2.0,80,0.00,,,0.00,meteohub,2013-12-05 17:52:00,
2013-12-05 12:57:00,55.4,48.9,30.11,SE,135,0.0,2.0,79,0.00,,,0.00,meteohub,2013-12-05 17:57:00,
2013-12-05 13:02:00,55.6,49.1,30.11,South,180,0.0,2.0,79,0.00,,,0.00,meteohub,2013-12-05 18:02:00,
2013-12-05 13:07:00,55.8,49.1,30.11,South,180,0.0,2.0,78,0.00,,,0.00,meteohub,2013-12-05 18:07:00,
2013-12-05 13:12:00,55.4,48.4,30.11,WNW,292,0.0,2.0,77,0.00,,,0.00,meteohub,2013-12-05 18:12:00,
2013-12-05 13:17:00,55.0,47.7,30.11,North,0,0.0,0.0,76,0.00,,,0.00,meteohub,2013-12-05 18:17:00,
2013-12-05 13:22:00,55.4,47.7,30.11,South,180,0.0,0.0,75,0.00,,,0.00,meteohub,2013-12-05 18:22:00,
2013-12-05 13:28:00,55.8,48.0,30.11,WSW,248,0.0,2.0,75,0.00,,,0.00,meteohub,2013-12-05 18:28:00,
2013-12-05 13:33:00,55.8,48.0,30.11,SSW,202,0.0,2.0,75,0.00,,,0.00,meteohub,2013-12-05 18:33:00,
2013-12-05 13:38:00,55.9,47.8,30.11,SE,135,2.0,3.0,74,0.00,,,0.00,meteohub,2013-12-05 18:38:00,
2013-12-05 13:43:00,55.9,47.8,30.11,WNW,292,3.0,4.0,74,0.00,,,0.00,meteohub,2013-12-05 18:43:00,
2013-12-05 13:48:00,55.8,47.3,30.11,SW,225,0.0,4.0,73,0.00,,,0.00,meteohub,2013-12-05 18:48:00,
2013-12-05 13:53:00,55.6,47.1,30.11,South,180,4.0,4.0,73,0.00,,,0.00,meteohub,2013-12-05 18:53:00,
2013-12-05 13:58:00,55.6,47.1,30.11,South,180,0.0,4.0,73,0.00,,,0.00,meteohub,2013-12-05 18:58:00,
2013-12-05 14:03:00,55.4,46.9,30.11,NW,315,0.0,4.0,73,0.00,,,0.00,meteohub,2013-12-05 19:03:00,
2013-12-05 14:09:00,55.4,46.9,30.11,SSE,158,0.0,4.0,73,0.00,,,0.00,meteohub,2013-12-05 19:09:00,
2013-12-05 14:14:00,55.4,46.9,30.11,SE,135,0.0,3.0,73,0.00,,,0.00,meteohub,2013-12-05 19:14:00,
2013-12-05 14:19:00,55.2,46.8,30.11,SW,225,0.0,3.0,73,0.00,,,0.00,meteohub,2013-12-05 19:19:00,
2013-12-05 14:24:00,55.2,46.8,30.11,SE,135,0.0,0.0,73,0.00,,,0.00,meteohub,2013-12-05 19:24:00,
2013-12-05 14:29:00,55.0,46.6,30.11,South,180,0.0,0.0,73,0.00,,,0.00,meteohub,2013-12-05 19:29:00,
2013-12-05 14:34:00,55.0,46.6,30.11,West,270,0.0,3.0,73,0.00,,,0.00,meteohub,2013-12-05 19:34:00,
2013-12-05 14:39:00,54.9,46.4,30.08,SSW,202,0.0,4.0,73,0.00,,,0.00,meteohub,2013-12-05 19:39:00,
2013-12-05 14:44:00,54.9,46.4,30.08,West,270,0.0,4.0,73,0.00,,,0.00,meteohub,2013-12-05 19:44:00,
2013-12-05 14:50:00,54.9,46.4,30.11,NNW,338,0.0,4.0,73,0.00,,,0.00,meteohub,2013-12-05 19:50:00,
2013-12-05 14:55:00,54.9,46.4,30.11,NNE,22,0.0,4.0,73,0.00,,,0.00,meteohub,2013-12-05 19:55:00,
2013-12-05 15:00:00,54.7,46.2,30.11,SSE,158,0.0,4.0,73,0.00,,,0.00,meteohub,2013-12-05 20:00:00,
2013-12-05 15:05:00,54.7,46.2,30.11,SE,135,0.0,0.0,73,0.00,,,0.00,meteohub,2013-12-05 20:05:00,
2013-12-05 15:10:00,54.7,46.2,30.11,West,270,0.0,0.0,73,0.00,,,0.00,meteohub,2013-12-05 20:10:00,
2013-12-05 15:15:00,54.7,46.2,30.11,South,180,0.0,0.0,73,0.00,,,0.00,meteohub,2013-12-05 20:15:00,
2013-12-05 15:21:00,54.7,46.2,30.11,West,270,0.0,0.0,73,0.00,,,0.00,meteohub,2013-12-05 20:21:00,
2013-12-05 15:26:00,54.7,46.2,30.11,SE,135,0.0,0.0,73,0.00,,,0.00,meteohub,2013-12-05 20:26:00,
2013-12-05 15:31:00,54.7,46.2,30.11,South,180,0.0,0.0,73,0.00,,,0.00,meteohub,2013-12-05 20:31:00,
2013-12-05 15:36:00,54.7,46.2,30.11,SSW,202,0.0,0.0,73,0.00,,,0.00,meteohub,2013-12-05 20:36:00,
2013-12-05 15:41:00,54.7,46.2,30.11,West,270,0.0,0.0,73,0.00,,,0.00,meteohub,2013-12-05 20:41:00,
2013-12-05 15:46:00,54.7,46.2,30.11,West,270,0.0,0.0,73,0.00,,,0.00,meteohub,2013-12-05 20:46:00,
2013-12-05 15:51:00,54.7,46.2,30.08,SW,225,0.0,0.0,73,0.00,,,0.00,meteohub,2013-12-05 20:51:00,
2013-12-05 15:56:00,54.7,46.2,30.08,SW,225,0.0,0.0,73,0.00,,,0.00,meteohub,2013-12-05 20:56:00,
2013-12-05 16:02:00,54.7,46.2,30.08,South,180,0.0,4.0,73,0.00,,,0.00,meteohub,2013-12-05 21:02:00,
2013-12-05 16:07:00,54.7,46.2,30.11,SW,225,0.0,4.0,73,0.00,,,0.00,meteohub,2013-12-05 21:07:00,
2013-12-05 16:12:00,54.7,46.2,30.11,SW,225,0.0,0.0,73,0.00,,,0.00,meteohub,2013-12-05 21:12:00,
2013-12-05 16:17:00,54.7,46.2,30.11,South,180,0.0,0.0,73,0.00,,,0.00,meteohub,2013-12-05 21:17:00,
2013-12-05 16:22:00,54.7,46.2,30.11,SW,225,0.0,0.0,73,0.00,,,0.00,meteohub,2013-12-05 21:22:00,
2013-12-05 16:27:00,54.7,46.2,30.11,SW,225,0.0,0.0,73,0.00,,,0.00,meteohub,2013-12-05 21:27:00,
2013-12-05 16:32:00,54.7,46.2,30.11,SSW,202,0.0,0.0,73,0.00,,,0.00,meteohub,2013-12-05 21:32:00,
2013-12-05 16:38:00,54.7,46.2,30.11,South,180,0.0,0.0,73,0.00,,,0.00,meteohub,2013-12-05 21:38:00,
2013-12-05 16:43:00,54.7,46.2,30.11,NW,315,0.0,0.0,73,0.00,,,0.00,meteohub,2013-12-05 21:43:00,
2013-12-05 16:48:00,54.7,46.2,30.11,South,180,0.0,0.0,73,0.00,,,0.00,meteohub,2013-12-05 21:48:00,
2013-12-05 16:53:00,54.7,46.2,30.11,SE,135,0.0,0.0,73,0.00,,,0.00,meteohub,2013-12-05 21:53:00,
2013-12-05 16:58:00,54.9,46.4,30.11,SE,135,0.0,0.0,73,0.00,,,0.00,meteohub,2013-12-05 21:58:00,
2013-12-05 17:03:00,54.9,46.8,30.11,SW,225,0.0,2.0,74,0.00,,,0.00,meteohub,2013-12-05 22:03:00,
2013-12-05 17:08:00,54.9,46.8,30.08,South,180,0.0,3.0,74,0.00,,,0.00,meteohub,2013-12-05 22:08:00,
2013-12-05 17:13:00,54.9,46.8,30.08,South,180,0.0,4.0,74,0.00,,,0.00,meteohub,2013-12-05 22:13:00,
2013-12-05 17:19:00,54.9,46.8,30.08,SW,225,0.0,4.0,74,0.00,,,0.00,meteohub,2013-12-05 22:19:00,
2013-12-05 17:24:00,54.9,46.8,30.08,NW,315,0.0,4.0,74,0.00,,,0.00,meteohub,2013-12-05 22:24:00,
2013-12-05 17:29:00,54.9,46.8,30.08,NW,315,0.0,3.0,74,0.00,,,0.00,meteohub,2013-12-05 22:29:00,
2013-12-05 17:34:00,54.9,46.8,30.08,NW,315,0.0,3.0,74,0.00,,,0.00,meteohub,2013-12-05 22:34:00,
2013-12-05 17:39:00,54.1,45.7,30.11,NW,315,0.0,0.0,73,0.00,,,0.00,meteohub,2013-12-05 22:39:00,
2013-12-05 17:44:00,54.1,45.7,30.11,NW,315,0.0,0.0,73,0.00,,,0.00,meteohub,2013-12-05 22:44:00,
2013-12-05 17:49:00,54.1,45.7,30.11,South,180,0.0,0.0,73,0.00,,,0.00,meteohub,2013-12-05 22:49:00,
2013-12-05 17:54:00,54.3,45.9,30.11,SW,225,0.0,0.0,73,0.00,,,0.00,meteohub,2013-12-05 22:54:00,
2013-12-05 18:00:00,54.3,45.9,30.11,SSE,158,0.0,0.0,73,0.00,,,0.00,meteohub,2013-12-05 23:00:00,
2013-12-05 18:05:00,54.5,46.4,30.11,SE,135,0.0,0.0,74,0.00,,,0.00,meteohub,2013-12-05 23:05:00,
2013-12-05 18:10:00,54.5,46.4,30.11,SSE,158,0.0,0.0,74,0.00,,,0.00,meteohub,2013-12-05 23:10:00,
2013-12-05 18:15:00,54.9,46.8,30.11,North,0,0.0,0.0,74,0.00,,,0.00,meteohub,2013-12-05 23:15:00,
2013-12-05 18:20:00,55.0,47.3,30.11,WSW,248,0.0,0.0,75,0.00,,,0.00,meteohub,2013-12-05 23:20:00,
2013-12-05 18:25:00,55.2,47.5,30.11,SE,135,0.0,4.0,75,0.00,,,0.00,meteohub,2013-12-05 23:25:00,
2013-12-05 18:30:00,55.2,47.5,30.11,SSE,158,0.0,4.0,75,0.00,,,0.00,meteohub,2013-12-05 23:30:00,
2013-12-05 18:35:00,55.2,47.8,30.11,SSE,158,0.0,0.0,76,0.00,,,0.00,meteohub,2013-12-05 23:35:00,
2013-12-05 18:40:00,55.4,47.7,30.11,NW,315,0.0,0.0,75,0.00,,,0.00,meteohub,2013-12-05 23:40:00,
2013-12-05 18:45:00,55.4,48.0,30.11,ESE,112,0.0,0.0,76,0.00,,,0.00,meteohub,2013-12-05 23:45:00,
2013-12-05 18:51:00,55.6,48.2,30.11,SSW,202,0.0,0.0,76,0.00,,,0.00,meteohub,2013-12-05 23:51:00,
2013-12-05 18:56:00,55.6,48.2,30.11,South,180,0.0,0.0,76,0.00,,,0.00,meteohub,2013-12-05 23:56:00,
2013-12-05 19:01:00,55.6,48.2,30.11,SSE,158,0.0,0.0,76,0.00,,,0.00,meteohub,2013-12-06 00:01:00,
2013-12-05 19:06:00,55.6,48.2,30.08,SW,225,0.0,0.0,76,0.00,,,0.00,meteohub,2013-12-06 00:06:00,
2013-12-05 19:11:00,55.6,48.2,30.08,South,180,0.0,0.0,76,0.00,,,0.00,meteohub,2013-12-06 00:11:00,
2013-12-05 19:16:00,55.6,48.6,30.08,SE,135,0.0,0.0,77,0.00,,,0.00,meteohub,2013-12-06 00:16:00,
2013-12-05 19:21:00,55.6,48.6,30.08,SW,225,0.0,0.0,77,0.00,,,0.00,meteohub,2013-12-06 00:21:00,
2013-12-05 19:26:00,55.6,48.6,30.08,SSE,158,0.0,0.0,77,0.00,,,0.00,meteohub,2013-12-06 00:26:00,
2013-12-05 19:31:00,55.6,48.6,30.08,SE,135,0.0,0.0,77,0.00,,,0.00,meteohub,2013-12-06 00:31:00,
2013-12-05 19:36:00,55.8,48.7,30.08,WSW,248,0.0,0.0,77,0.00,,,0.00,meteohub,2013-12-06 00:36:00,
2013-12-05 19:42:00,55.8,49.1,30.08,South,180,0.0,0.0,78,0.00,,,0.00,meteohub,2013-12-06 00:42:00,
2013-12-05 19:47:00,55.9,49.1,30.08,SW,225,0.0,0.0,78,0.00,,,0.00,meteohub,2013-12-06 00:47:00,
2013-12-05 19:52:00,55.8,49.1,30.08,South,180,0.0,0.0,78,0.00,,,0.00,meteohub,2013-12-06 00:52:00,
2013-12-05 19:57:00,55.9,49.1,30.08,SE,135,0.0,0.0,78,0.00,,,0.00,meteohub,2013-12-06 00:57:00,
2013-12-05 20:02:00,55.9,49.1,30.08,South,180,0.0,0.0,78,0.00,,,0.00,meteohub,2013-12-06 01:02:00,
2013-12-05 20:07:00,55.9,49.1,30.08,SSE,158,0.0,0.0,78,0.00,,,0.00,meteohub,2013-12-06 01:07:00,
2013-12-05 20:12:00,55.8,49.1,30.08,South,180,0.0,0.0,78,0.00,,,0.00,meteohub,2013-12-06 01:12:00,
2013-12-05 20:18:00,55.4,48.7,30.08,WSW,248,0.0,0.0,78,0.00,,,0.00,meteohub,2013-12-06 01:18:00,
2013-12-05 20:23:00,55.0,48.4,30.11,South,180,0.0,3.0,78,0.00,,,0.00,meteohub,2013-12-06 01:23:00,
2013-12-05 20:28:00,55.0,48.0,30.11,South,180,0.0,3.0,77,0.00,,,0.00,meteohub,2013-12-06 01:28:00,
2013-12-05 20:33:00,55.0,48.0,30.11,SSW,202,2.0,3.0,77,0.00,,,0.00,meteohub,2013-12-06 01:33:00,
2013-12-05 20:39:00,54.9,47.8,30.08,SSW,202,0.0,3.0,77,0.00,,,0.00,meteohub,2013-12-06 01:39:00,
2013-12-05 20:44:00,54.9,47.8,30.08,SE,135,0.0,2.0,77,0.00,,,0.00,meteohub,2013-12-06 01:44:00,
2013-12-05 20:49:00,54.9,47.8,30.08,SSW,202,0.0,3.0,77,0.00,,,0.00,meteohub,2013-12-06 01:49:00,
2013-12-05 20:54:00,54.9,48.2,30.08,SW,225,0.0,3.0,78,0.00,,,0.00,meteohub,2013-12-06 01:54:00,
2013-12-05 20:59:00,54.9,48.2,30.08,South,180,0.0,4.0,78,0.00,,,0.00,meteohub,2013-12-06 01:59:00,
2013-12-05 21:04:00,54.9,48.6,30.08,South,180,0.0,4.0,79,0.00,,,0.00,meteohub,2013-12-06 02:04:00,
2013-12-05 21:09:00,54.9,48.6,30.08,South,180,0.0,3.0,79,0.00,,,0.00,meteohub,2013-12-06 02:09:00,
2013-12-05 21:14:00,54.9,48.7,30.08,SSW,202,0.0,4.0,80,0.00,,,0.00,meteohub,2013-12-06 02:14:00,
2013-12-05 21:19:00,54.9,49.1,30.08,SSW,202,0.0,4.0,81,0.00,,,0.00,meteohub,2013-12-06 02:19:00,
2013-12-05 21:24:00,54.9,49.1,30.08,ENE,68,0.0,4.0,81,0.00,,,0.00,meteohub,2013-12-06 02:24:00,
2013-12-05 21:30:00,54.9,49.5,30.08,South,180,0.0,3.0,82,0.00,,,0.00,meteohub,2013-12-06 02:30:00,
2013-12-05 21:35:00,54.9,49.5,30.08,SW,225,0.0,2.0,82,0.00,,,0.00,meteohub,2013-12-06 02:35:00,
2013-12-05 21:40:00,54.9,49.5,30.08,East,90,0.0,0.0,82,0.00,,,0.00,meteohub,2013-12-06 02:40:00,
2013-12-05 21:45:00,54.7,49.6,30.08,NE,45,0.0,0.0,83,0.00,,,0.00,meteohub,2013-12-06 02:45:00,
2013-12-05 21:50:00,54.7,49.6,30.08,SSE,158,0.0,0.0,83,0.00,,,0.00,meteohub,2013-12-06 02:50:00,
2013-12-05 21:55:00,54.7,49.6,30.08,West,270,0.0,0.0,83,0.00,,,0.00,meteohub,2013-12-06 02:55:00,
2013-12-05 22:00:00,54.7,49.6,30.08,SE,135,0.0,0.0,83,0.00,,,0.00,meteohub,2013-12-06 03:00:00,
2013-12-05 22:05:00,54.7,49.6,30.05,SW,225,0.0,3.0,83,0.00,,,0.00,meteohub,2013-12-06 03:05:00,
2013-12-05 22:10:00,54.5,49.5,30.05,SW,225,0.0,3.0,83,0.00,,,0.00,meteohub,2013-12-06 03:10:00,
2013-12-05 22:16:00,54.5,49.5,30.05,SSW,202,0.0,3.0,83,0.00,,,0.00,meteohub,2013-12-06 03:16:00,
2013-12-05 22:21:00,54.5,49.5,30.05,South,180,0.0,0.0,83,0.00,,,0.00,meteohub,2013-12-06 03:21:00,
2013-12-05 22:26:00,54.3,49.3,30.05,SE,135,0.0,0.0,83,0.00,,,0.00,meteohub,2013-12-06 03:26:00,
2013-12-05 22:31:00,54.3,49.3,30.05,South,180,0.0,0.0,83,0.00,,,0.00,meteohub,2013-12-06 03:31:00,
2013-12-05 22:36:00,54.3,49.6,30.05,South,180,0.0,0.0,84,0.00,,,0.00,meteohub,2013-12-06 03:36:00,
2013-12-05 22:41:00,54.3,49.6,30.05,SSE,158,0.0,0.0,84,0.00,,,0.00,meteohub,2013-12-06 03:41:00,
2013-12-05 22:46:00,54.3,49.6,30.05,SE,135,0.0,4.0,84,0.00,,,0.00,meteohub,2013-12-06 03:46:00,
2013-12-05 22:51:00,54.1,49.5,30.05,SW,225,0.0,4.0,84,0.00,,,0.00,meteohub,2013-12-06 03:51:00,
2013-12-05 22:56:00,54.1,49.5,30.05,South,180,2.0,4.0,84,0.00,,,0.00,meteohub,2013-12-06 03:56:00,
2013-12-05 23:01:00,54.3,49.6,30.05,SE,135,0.0,3.0,84,0.00,,,0.00,meteohub,2013-12-06 04:01:00,
2013-12-05 23:07:00,54.5,49.8,30.05,South,180,0.0,2.0,84,0.00,,,0.00,meteohub,2013-12-06 04:07:00,
2013-12-05 23:12:00,54.5,50.0,30.05,SE,135,0.0,4.0,85,0.00,,,0.00,meteohub,2013-12-06 04:12:00,
2013-12-05 23:17:00,54.5,50.0,30.05,SE,135,4.0,4.0,85,0.00,,,0.00,meteohub,2013-12-06 04:17:00,
2013-12-05 23:22:00,54.5,50.0,30.05,West,270,0.0,4.0,85,0.00,,,0.00,meteohub,2013-12-06 04:22:00,
2013-12-05 23:27:00,54.5,50.0,30.05,SE,135,0.0,4.0,85,0.00,,,0.00,meteohub,2013-12-06 04:27:00,
2013-12-05 23:32:00,54.3,50.0,30.05,South,180,0.0,4.0,85,0.00,,,0.00,meteohub,2013-12-06 04:32:00,
2013-12-05 23:37:00,54.1,49.8,30.05,South,180,0.0,3.0,85,0.00,,,0.00,meteohub,2013-12-06 04:37:00,
2013-12-05 23:42:00,54.1,49.8,30.05,South,180,0.0,3.0,85,0.00,,,0.00,meteohub,2013-12-06 04:42:00,
2013-12-05 23:47:00,54.1,49.8,30.05,SW,225,0.0,3.0,85,0.00,,,0.00,meteohub,2013-12-06 04:47:00,
2013-12-05 23:52:00,54.1,49.8,30.02,SE,135,0.0,3.0,85,0.00,,,0.00,meteohub,2013-12-06 04:52:00,
2013-12-05 23:58:00,54.1,49.8,30.02,SW,225,0.0,3.0,85,0.00,,,0.00,meteohub,2013-12-06 04:58:00,